Погода в Баргузине

Погода в Баргузине : погода сейчас, прогноз погоды и архив. Всё, что Вы хотите узнать о погоде в Баргузине!

Поиск расширенной информации на нашем сайте:

Другие новости

Новости СМИ2

Главная страница сайта

Новости сайта

02.10.2013

Напоминаем, что на нашем новом сайте вы можете получить высокодетализированные прогнозы погоды по пунктам России, СНГ и мира (включающие важные для авиации метеовеличины, такие как направление и скорость ветра, видимость, явления погоды, количество и форма облачности, нижняя и верхняя граница облачности), а также ознакомиться с разнообразными материалами по авиационной метеорологии и подборкой полезных ссылок на эту тему.

Сайт Метеоцентр.Азия посвящён разработке технологий оптимизации авиаметеорологического обслуживания, включая проектирование и перспективное создание нескольких автоматизированных авиаметеорологических систем:
- система выпуска высокодетальных прогностических карт явлений погоды для нижнего воздушного пространства по России и ближнему зарубежью;
- система верификации прогнозов TAF (выпускаемых синоптиками официальных АМСГ РФ и ближнего зарубежья) и AUTOTAF (выпускаемых сайтом Метеоцентр.Азия) - выявление ошибок, онлайн-сопоставление с фактической погодой METAR, автоматическое внесение коррективов в прогнозы при резком отклонении фактической погоды от прогноза, подсчёт оправдываемости прогнозов по элементам и в целом;
- система обработки, анализа и отображения авиаметеорологической информации для применения провайдерами метеорологической информации.


Погода в Баргузине - сегодня

Время (UTC), дата Ветер
(°,м/с) 
Видим.   Явления Облачность Т
(°С)
Тd
(°С)
f(%) Тe
(°С)
Pmin
(гПа)
dP
(гПа)
Po
(мм)
O2
(г/м3)
Тmin Tmax R s Состояние
почвы
12 13.01.17 240 (ЮЗ) н/о    ясно 
-36.3 -40.2 67 -37  1045.3  0.2  731  342    -30       
15 13.01.17 240 (ЮЗ) н/о    ясно 
-38.7 -43 64 -40  1046.1  0.1  731  345           
18 13.01.17 тихо ()   н/о    ясно 
-38.6 -42.8 65 -39  1046  0.1  731  345           
21 13.01.17 230 (ЮЗ) н/о    ясно 
-39.9 -44.3 63 -41  1046  -0.4  731  347           
00 14.01.17 230 (ЮЗ) н/о    ясно 
-40.3 -44.7 63 -42  1046.5  0.4  731  348  -40.5      50  равномерный
сухой снег
100% 
03 14.01.17 260 (З) 20000 м    4/0 верхняя 
[Ci fib]
-35.7 -39.7 67 -37  1045.3  0.2  731  341  -40.7         
06 14.01.17 250 (З) 20000 м    4/0 верхняя 
[Ci fib]
-31.2 -36.4 60 -32  1042.9  -1  730  334           
09 14.01.17 тихо ()   20000 м    8/0 верхняя 
[Ci fib]
-32.4 -36.3 68 -32  1043.4  0.2  730  336           
12 14.01.17 260 (З) н/о    ясно 
-33.9 -37.6 69 -35  1044.4  0.5  731  338    -31.1       
15 14.01.17 240 (ЮЗ) н/о    ясно 
-34.5 -38.3 68 -35  1044.6  731  339           
18 14.01.17 250 (З) н/о    ясно 
-33.6 -37.2 70 -35  1044.4  731  338           
21 14.01.17 230 (ЮЗ) н/о    ясно 
-33.6 -37.2 70 -35  1044.5  0.1  731  338           
00 15.01.17 тихо ()   н/о    ясно 
-33.2 -36.8 70 -33  1043.6  -0.7  730  337  -34.9      50  равномерный
сухой снег
100% 
03 15.01.17 250 (З) 20000 м    10/0 средняя, верхняя 
[Ac trans|Ci fib]
-31.3 -35.1 69 -32  1043.2  0.1  731  334           
06 15.01.17 240 (ЮЗ) 20000 м    10/0 средняя, верхняя 
[Ac trans|Cs]
-28.7 -33.3 65 -29  1041.1  -1.2  730  330           
09 15.01.17 220 (ЮЗ) 20000 м    10/0 средняя, верхняя 
[Ac trans|Ci fib]
-28.5 -32.6 68 -29  1041.1  730  330           
12 15.01.17 тихо ()   н/о    10/0 средняя, верхняя 
[Ac trans|Ci fib]
-29.8 -32.9 74 -30  1041.7  0.2  730  332    -27.7       
15 15.01.17 220 (ЮЗ) н/о    10/0 верхняя 
[Ci fib]
-28.7 -31.8 75 -29  1041.3  730  330           
18 15.01.17 тихо ()   н/о    8/0 верхняя 
[Ci fib]
-29.6 -32.6 75 -30  1041.4  -0.2  730  332           
21 15.01.17 тихо ()   н/о    4/0 верхняя 
[Ci fib]
-30.3 -33.4 74 -30  1041.7  730  333           
00 16.01.17 тихо ()   н/о    ясно 
-32.4 -35.7 72 -32  1042.6  0.4  730  336  -32.4      50  равномерный
сухой снег
100% 
03 16.01.17 тихо ()   20000 м    10/0 верхняя 
[Cs]
-29.6 -32.9 73 -30  1042.4  0.6  730  332  -32.7         
06 16.01.17 240 (ЮЗ) 20000 м    10/0 верхняя 
[Cs]
-24.9 -30.4 60 -25  1039.5  -1.5  729  325           
09 16.01.17 тихо ()   20000 м    10/0 средняя, верхняя 
[Ac trans|Ci fib]
-27 -31.3 67 -27  1040.6  0.4  730  328           
12 16.01.17 тихо ()   н/о    ясно 
-30.7 -33.6 76 -31  1041.8  0.2  730  333    -22.6       
Время (UTC), дата Ветер
(°,м/с) 
Видим.   Явления Облачность Т
(°С)
Тd
(°С)
f(%) Тe
(°С)
Pmin
(гПа)
dP
(гПа)
Po
(мм)
O2
(г/м3)
Тmin Tmax R s Состояние
почвы

Для получения пояснительной информации подведите курсор к названию столбца.

ПОГОДА в Баргузине - архив

Всё, что Вы хотите узнать о погоде в Баргузине - удобно и подробно!

Выберите нужную дату (начиная с 1 января 2015* года) и нажмите кнопку "Найти".
Будут отображены архивные сводки погоды по пункту Баргузин, начиная с указанной даты.


Отображать данные в формате CSV (для использования в таблицах Excel)


Внимание! Наш архив погоды предназначен исключительно для личного некоммерческого использования в познавательных целях. Если Вам необходимы официальные справки о состоянии погоды (для производственных, юридических, коммерческих и т.п. целей), обращайтесь в органы Росгидромета.

*Примечание: данная дата относится к архиву по метеостанциям СССР (Россия, СНГ, Балтия).
Архив по метеостанциям Зарубежной Европы и Азии (кроме Китая) хранится 10 дней, по другим регионам земного шара (Китай, Африка, Америка, Австралия, Океания) - 1 день.

Баргузин - район местоположения метеостанции


Название, широта, долгота, высота метеостанции:
Баргузин 53.6°ш. 109.6°д. 489 м над ур. моря [Российская Федерация]

Дополнительная информация

В oтличие oт бoльшинства пoгoдных сайтoв мы публикуем пoдрoбную метеoинфoрмацию в детальнoм прoфессиoнальнoм фoрмате.

Характеристики температуры и влажнoсти вoздуха измеряются на высoте 2 м в тени вдали oт зданий и деревьев.
Скoрoсть ветра измеряется на высoте 10 м (на урoвне рoста челoвека скoрoсть ветра ниже в 1.5-2 раза). Если метеoстанция нахoдится в гoрoде или в лесу, тo скoрoсть ветра занижена на 2-4 м/с пo сравнению с oткрытым местoм. Скoрoсть ветра над акватoриями крупных рек и oзёр, а также на вершинах хoлмoв на 2-5 м/с выше, чем в oбычных услoвиях.
Атмoсфернoе давление в разных тoчках местнoсти мoжет значительнo oтличаться oт давления на метеoстанции, в зависимoсти oт услoвий рельефа (при пoдъёме на 10 м давление пoнижается примернo на 1 мм рт.ст.).